DMSP 5D-2 F13 DEB, 42282

Orbit data source: Space-Track

DMSP 5D-2 F13 DEB, 42282 is space debris in SSO originally from a launch on Fri, 24 Mar 1995 UTC launched from the Air Force Western Test Range (AFWTR). Debris objects in space refer to the collection of defunct objects orbiting the Earth. Examples of debris include non-operational satellites, rocket bodies, and fragments generated from explosions, collisions, or faulty payload assembly.

Loading next visibility...
Identifier
42282, 1995-015GY
Orbit
SSO
Country
Flag of USUS
Related business
Manufacturer
Unknown
Mission
Spacecraft
Bus & Motor
Unknown
Mass
Unknown
Launch date (UTC)
1995-03-24 (31 years ago)
Launch vehicle
Unknown
Launch site
Air Force Western Test Range (AFWTR)
Object type
Payload
Rocket body
Debris
Shape & HBR
Unknown shape, 0.1 m
Radar Cross Section
Medium (>0.1 m² and <1 m²)

Expand to show TLE details & history
Last TLE update: 4 days ago

TLE from 4 days ago
0 DMSP 5D-2 F13 DEB
1 42282U 95015GY  26169.50820691  .00002847  00000-0  10996-2 0  9991
2 42282  98.9346 190.9634 0028341 308.0493  51.8132 14.30783054575547
Epoch: 2026-06-18T12:11Z
TLE epoch observation values (Epoch: 2026-06-18T12:11:49.077Z)
Latitude
0.00003°
Longitude
101.25838°
Altitude
779.512 km
Speed
7.471 km/s
True Right ascension
12h 43m 51s
True Declination
0° 00' 00"
Sunlit
Object was in daylight at epoch
Visualization orbit readout
Latitude
Unknown
Longitude
Unknown
Altitude
Unknown
Speed
Unknown
Apparent Right ascension
Unknown
Apparent Declination
Unknown
Sunlit
N/A
Visualization observer readout
Local Sidereal Time
21:35:37
Azimuth
Unknown
Elevation
Unknown
Doppler factor
Unknown
Orbital elements
Apogee altitude
806.574 km
Perigee altitude
765.965 km
Semi-major axis
7,164.407 km
Eccentricity
0.00283
Inclination
98.9346°
RAAN
190.9634°
Arg. of periapsis
308.0493°
True anomaly
52.06902°
Mean anomaly
51.8132°
Eccentric anomaly
51.94106°
Mean motion
3.57909 °/min
Orbital period
100.58 mins
BSTAR
0.0010996

Documentation

Showing up to 5 results
|